Hourly Data Report for January 16, 2022

MIRAMICHI RCS
NEW BRUNSWICK
Current Station Operator: ECCC - MSC

47°00'34.000" N
65°27'54.000" W
33.00 m
8100989
71744
ACQ

Download Data

Hourly Data (January 2022)
Hourly Data Report for January 16, 2022
TIME
LST
Temp Definition
°C
Dew Point Definition
°C
Rel Hum Definition
%
Precip. Amount Definition
mm

Wind Dir Definition
10's deg

Wind Spd Definition
km/h
Visibility Definition
km
Stn Press Definition
kPa
Hmdx Definition


Wind Chill Definition


Weather Definition


00:00 -16.2 -23.1 56 0.0 30 34   100.57   -28 LegendNANA
01:00 -16.1 -22.9 56 0.0 30 23   100.69   -26 LegendNANA
02:00 -16.5 -23.1 57 0.0 30 27   100.88   -27 LegendNANA
03:00 -17.5 -23.5 60 0.0 29 23   101.08   -28 LegendNANA
04:00 -18.1 -23.8 61 0.0 28 18   101.18   -28 LegendNANA
05:00 -18.4 -23.9 62 0.0 27 25   101.24   -30 LegendNANA
06:00 -18.9 -24.1 63 0.0 26 17   101.33   -28 LegendNANA
07:00 -19.8 -24.7 65 0.0 25 9   101.47   -27 LegendNANA
08:00 -20.0 -24.9 65 0.0 25 14   101.59   -29 LegendNANA
09:00 -19.2 -24.7 62 0.0 25 12   101.68   -27 LegendNANA
10:00 -17.4 -24.2 55 0.0 25 17   101.77   -26 LegendNANA
11:00 -15.8 -23.6 51 0.0 25 16   101.80   -24 LegendNANA
12:00 -13.6 -22.3 48 0.0 25 14   101.78   -21 LegendNANA
13:00 -11.9 -20.9 47 0.0 23 21   101.78   -20 LegendNANA
14:00 -10.5 -20.8 42 0.0 24 22   101.75   -19 LegendNANA
15:00 -9.9 -19.5 45 0.0 24 18   101.81   -17 LegendNANA
16:00 -9.7 -19.4 45 0.0 23 20   101.86   -17 LegendNANA
17:00 -11.1 -19.0 52 0.0 23 20   101.93   -19 LegendNANA
18:00 -11.8 -19.2 54 0.0 24 14   101.92   -19 LegendNANA
19:00 -12.3 -19.4 55 0.0 25 15   101.92   -20 LegendNANA
20:00 -13.4 -19.2 61 0.0 23 15   101.91   -21 LegendNANA
21:00 -15.0 -20.0 66 0.0 20 9   101.86   -21 LegendNANA
22:00 -15.2 -20.1 66 0.0 22 17   101.96   -24 LegendNANA
23:00 -15.4 -20.6 64 0.0 23 14   102.02   -23 LegendNANA

Notes on Data Quality.

Legend

  • E = Estimated
  • M = Missing
  • NA = Not Available*
  • [empty] = Indicates an unobserved value
Date modified: